Regional Weather Roundup
Issued by NWS

Home | Current Version | Previous Version | Graphics & Text | Print | Product List | Glossary On
Versions: 1 2 3 4 5 6 7 8 9 10 11 12 13 14 15 16 17 18 19 20 21 22 23 24 25 26 27 28 29 30 31 32 33 34 35 36 37 38 39 40 41 42 43 44 45 46 47 48 49 50
000
ASUS43 KBIS 191610
RWRND

NORTH DAKOTA REGIONAL WEATHER ROUNDUP
NATIONAL WEATHER SERVICE BISMARCK ND
1100 AM CDT FRI SEP 19 2014

NOTE: "FAIR" INDICATES FEW OR NO CLOUDS BELOW 12,000 FEET WITH NO
SIGNIFICANT WEATHER AND/OR OBSTRUCTIONS TO VISIBILITY.


NDZ001>003-009>011-017-191700-
NORTHWEST NORTH DAKOTA

CITY           SKY/WX    TMP DP  RH WIND       PRES   REMARKS
WILLISTON      SUNNY     72  47  40 W22G31    29.63S
MINOT          SUNNY     72  52  49 W14       29.57R
MINOT AFB      SUNNY     70  55  60 W9        29.56R
$$

NDZ018>021-031>035-040>046-191700-
SOUTHWEST NORTH DAKOTA

CITY           SKY/WX    TMP DP  RH WIND       PRES   REMARKS
BISMARCK       CLOUDY    72  59  63 W12       29.64R
DICKINSON      SUNNY     73  52  47 W15       29.70R
GARRISON         N/A     73  53  49 W15G22    29.61R
HETTINGER ARPT PTSUNNY   71  56  58 W13       29.75R
$$

NDZ004>008-012>016-024-026-027-054-191700-
NORTHEAST NORTH DAKOTA

CITY           SKY/WX    TMP DP  RH WIND       PRES   REMARKS
GRAND FORKS    LGT RAIN  66  62  87 S10       29.55R
GRND FRKS AFB  CLOUDY    67  65  93 S10       29.55R
DEVILS LAKE    CLOUDY    66  59  77 CALM      29.51F
$$

NDZ022-023-025-028>030-036>039-047>053-191700-
SOUTHEAST NORTH DAKOTA

CITY           SKY/WX    TMP DP  RH WIND       PRES   REMARKS
FARGO          CLOUDY    66  60  81 S15       29.62F
JAMESTOWN      PTSUNNY   70  64  81 S5        29.58R
$$



USA.gov is the U.S. government's official web portal to all federal, state and local government web resources and services.